Weather History for Fort Worth, TX

Change the Weather History Date:

Tuesday, April 23, 2013

  Actual Average Record
Temperature  
Mean Temperature 52 °F -  
Max Temperature 66 °F 75 °F 91 °F (2011)
Min Temperature 39 °F 54 °F 39 °F (2013)
Degree Days  
Heating Degree Days 12    
Growing Degree Days 2 (Base 50)    
Moisture  
Dew Point 47 °F    
Average Humidity 87    
Maximum Humidity 100    
Minimum Humidity 73    
Precipitation  
Precipitation 0.04 in - - ()
Sea Level Pressure  
Sea Level Pressure 30.00 in    
Wind  
Wind Speed 14 mph (NW)    
Max Wind Speed 18 mph    
Max Gust Speed 29 mph    
Visibility 9 miles    
Events Rain    
Averages and records for this station are not official NWS values.
T = Trace of Precipitation, MM = Missing Value Source: NWS Daily Summary

Daily Weather History Graph

Daily Weather History Graph

Search for Another Location

Airport:

Trip Planner

Search our weather history database for the weather conditions in past years. The results will help you decide how hot, cold, wet, or windy it might be!

Date:

Astronomy

Apr. 23, 2013 Rise Set
Actual Time 6:50 AM CDT 8:05 PM CDT
Civil Twilight 6:24 AM CDT 8:31 PM CDT
Nautical Twilight 5:53 AM CDT 9:02 PM CDT
Astronomical Twilight 5:21 AM CDT 9:34 PM CDT
Moon 6:07 PM CDT (4/23) 5:11 AM CDT (4/23)
Length of Visible Light 14h 06m
Length of Day
13h 15m
Waxing Gibbous, 94% of the Moon is Illuminated
Apr 23
Waxing Gibbous
Apr 25
Full
May 2
Last Quarter
May 9
New
May 17
First Quarter

Hourly Weather History & Observations

Time (CDT) Temp. Windchill Dew Point Humidity Pressure Visibility Wind Dir Wind Speed Gust Speed Precip Events Conditions
12:53 AM 66.9 °F - 59.0 °F 76% 29.81 in 10.0 mi SSE 15.0 mph 21.9 mph N/A   Clear
1:53 AM 66.0 °F - 59.0 °F 78% 29.80 in 10.0 mi SSE 18.4 mph 28.8 mph N/A   Clear
2:53 AM 64.0 °F - 60.1 °F 87% 29.78 in 10.0 mi South 18.4 mph 25.3 mph N/A   Clear
3:53 AM 63.0 °F - 61.0 °F 93% 29.77 in 10.0 mi South 17.3 mph 23.0 mph N/A   Clear
4:53 AM 62.6 °F - 60.8 °F 94% 29.79 in 10.0 mi South 9.2 mph 23.0 mph N/A   Partly Cloudy
5:10 AM 62.6 °F - 60.8 °F 94% 29.84 in 10.0 mi South 6.9 mph - N/A   Mostly Cloudy
5:44 AM 62.6 °F - 60.8 °F 94% 29.87 in 10.0 mi SSW 10.4 mph 17.3 mph N/A   Overcast
5:53 AM 63.0 °F - 61.0 °F 93% 29.85 in 10.0 mi SSW 11.5 mph 19.6 mph N/A   Overcast
6:53 AM 63.0 °F - 61.0 °F 93% 29.85 in 10.0 mi South 12.7 mph - N/A   Overcast
7:53 AM 63.0 °F - 62.1 °F 97% 29.88 in 6.0 mi South 8.1 mph - N/A   Overcast
8:19 AM 62.6 °F - 62.6 °F 100% 29.91 in 3.0 mi South 6.9 mph - 0.00 in Rain Light Rain
8:29 AM 55.4 °F - 55.4 °F 100% 29.93 in 5.0 mi NW 16.1 mph 21.9 mph 0.00 in Rain Light Rain
8:36 AM 53.6 °F - 51.8 °F 94% 29.94 in 8.0 mi WNW 17.3 mph - 0.00 in Rain Light Rain
8:43 AM 53.6 °F - 50.0 °F 88% 29.94 in 9.0 mi WNW 13.8 mph - 0.00 in Rain Light Rain
8:53 AM 51.1 °F - 48.9 °F 92% 29.94 in 8.0 mi WNW 17.3 mph 24.2 mph 0.00 in Rain Light Rain
9:53 AM 48.9 °F - 46.9 °F 93% 29.98 in 9.0 mi WNW 17.3 mph 23.0 mph 0.00 in   Overcast
10:53 AM 46.9 °F - 43.0 °F 86% 30.02 in 10.0 mi NW 13.8 mph 25.3 mph N/A   Overcast
11:53 AM 45.0 °F 37.9 °F 42.1 °F 90% 30.05 in 10.0 mi NNW 16.1 mph 26.5 mph N/A   Overcast
12:00 PM 44.6 °F 36.9 °F 42.8 °F 93% 30.05 in 10.0 mi NW 18.4 mph 26.5 mph N/A   Overcast
12:53 PM 46.0 °F 38.8 °F 41.0 °F 83% 30.05 in 10.0 mi NNW 18.4 mph 24.2 mph N/A   Overcast
1:53 PM 46.0 °F 39.3 °F 41.0 °F 83% 30.05 in 10.0 mi NNW 16.1 mph 19.6 mph N/A   Overcast
2:53 PM 46.9 °F - 41.0 °F 80% 30.04 in 10.0 mi NW 16.1 mph 21.9 mph N/A   Overcast
3:53 PM 46.9 °F - 39.0 °F 74% 30.04 in 10.0 mi NNW 12.7 mph - N/A   Overcast
4:53 PM 46.0 °F 39.0 °F 39.0 °F 76% 30.04 in 10.0 mi NW 17.3 mph - N/A   Overcast
5:53 PM 46.0 °F 39.9 °F 37.9 °F 73% 30.05 in 10.0 mi NNW 13.8 mph 20.7 mph 0.00 in   Overcast
6:53 PM 45.0 °F 37.9 °F 37.9 °F 76% 30.06 in 10.0 mi NNW 16.1 mph 21.9 mph 0.00 in   Overcast
7:38 PM 44.6 °F 37.8 °F 37.4 °F 76% 30.07 in 10.0 mi North 15.0 mph 21.9 mph N/A   Overcast
7:53 PM 44.1 °F 37.4 °F 37.9 °F 79% 30.07 in 10.0 mi NNW 13.8 mph 19.6 mph N/A   Overcast
8:11 PM 44.6 °F 37.4 °F 37.4 °F 76% 30.09 in 10.0 mi NNW 16.1 mph 20.7 mph N/A   Overcast
8:53 PM 43.0 °F 35.7 °F 37.9 °F 82% 30.11 in 10.0 mi North 15.0 mph - N/A   Overcast
9:06 PM 42.8 °F 35.8 °F 37.4 °F 81% 30.12 in 10.0 mi North 13.8 mph 21.9 mph N/A   Overcast
9:44 PM 42.8 °F 37.0 °F 37.4 °F 81% 30.15 in 10.0 mi NNW 10.4 mph 21.9 mph N/A   Overcast
9:53 PM 42.1 °F 35.2 °F 37.0 °F 82% 30.15 in 10.0 mi NNW 12.7 mph 20.7 mph N/A   Overcast
10:13 PM 41.0 °F 32.8 °F 37.4 °F 87% 30.17 in 7.0 mi NW 16.1 mph 23.0 mph 0.01 in Rain Rain
10:53 PM 39.9 °F 32.9 °F 37.9 °F 93% 30.19 in 8.0 mi North 11.5 mph 18.4 mph 0.02 in Rain Light Rain
11:15 PM 39.2 °F 32.5 °F 39.2 °F 100% 30.20 in 7.0 mi NNW 10.4 mph - 0.01 in Rain Light Rain
11:53 PM 39.0 °F 31.4 °F 37.9 °F 96% 30.22 in 8.0 mi NNW 12.7 mph - 0.02 in Rain Light Rain